Fairbanks Ft. Wainwright, AK

3:16 PM AKST on November 21, 2017 (GMT -0900)
Ladd Army Air Field

Weather History for PAFB - November, 2013

Change the Weather History Date:

Tuesday, November 12, 2013

  Actual Average Record
Temperature  
Mean Temperature 6 °F -  
Max Temperature 12 °F 11 °F 30 °F (2014)
Min Temperature 1 °F 1 °F -20 °F (2012)
Degree Days  
Heating Degree Days 58    
Moisture  
Dew Point 3 °F    
Average Humidity 82    
Maximum Humidity 85    
Minimum Humidity 76    
Precipitation  
Precipitation 0.02 in - - ()
Snow  
Snow 0.00 in - - ()
Snow Depth 7.00 in    
Sea Level Pressure  
Sea Level Pressure 30.26 in    
Wind  
Wind Speed 2 mph (ENE)    
Max Wind Speed 7 mph    
Max Gust Speed -    
Visibility 9 miles    
Events Snow    
Averages and records for this station are not official NWS values.
T = Trace of Precipitation, MM = Missing Value Source: NWS Daily Summary

Daily Weather History Graph

Daily Weather History Graph

Search for Another Location

Airport or City:

Trip Planner

Search our weather history database for the weather conditions in past years. The results will help you decide how hot, cold, wet, or windy it might be!

Date:

Astronomy

Nov. 12, 2013 Rise Set
Actual Time 9:17 AM AKST 3:51 PM AKST
Civil Twilight 8:16 AM AKST 4:52 PM AKST
Nautical Twilight 7:14 AM AKST 5:54 PM AKST
Astronomical Twilight 6:16 AM AKST 6:51 PM AKST
Moon 2:48 PM AKST (11/12) 2:27 AM AKST (11/12)
Length of Visible Light 8h 36m
Length of Day
6h 34m
Waxing Gibbous, 77% of the Moon is Illuminated
Nov 12
Waxing Gibbous
Nov 17
Full
Nov 25
Last Quarter
Dec 2
New
Dec 9
First Quarter

Hourly Weather History & Observations

Time (AKST) Temp. Windchill Dew Point Humidity Pressure Visibility Wind Dir Wind Speed Gust Speed Precip Events Conditions
12:56 AM 5.0 °F - 1.0 °F 84% 30.35 in 10.0 mi Calm Calm - N/A   Overcast
1:08 AM 6.8 °F - 1.4 °F 79% 30.30 in 10.0 mi Calm Calm - N/A   Overcast
1:56 AM 3.0 °F - -0.9 °F 84% 30.35 in 10.0 mi Calm Calm - N/A   Overcast
2:56 AM 1.9 °F - -2.9 °F 80% 30.34 in 10.0 mi Calm Calm - N/A   Overcast
3:12 AM 1.4 °F - -2.2 °F 85% 30.30 in 10.0 mi Calm Calm - N/A   Overcast
3:56 AM 3.9 °F - -0.9 °F 80% 30.34 in 10.0 mi Calm Calm - N/A   Overcast
4:56 AM 3.0 °F - -0.9 °F 84% 30.34 in 10.0 mi Calm Calm - N/A   Overcast
6:30 AM 3.2 °F - -0.4 °F 85% 30.29 in 7.0 mi Calm Calm - N/A   Ice Crystals
6:55 AM 3.2 °F - -0.4 °F 85% 30.33 in 7.0 mi Calm Calm - N/A   Mostly Cloudy
7:55 AM 5.0 °F - 1.4 °F 85% 30.32 in 7.0 mi Calm Calm - N/A Snow Light Snow
8:55 AM 6.8 °F - 1.4 °F 79% 30.32 in 7.0 mi Calm Calm - N/A Snow Light Snow
9:55 AM 6.8 °F -3.5 °F 3.2 °F 85% 30.31 in 7.0 mi ENE 5.8 mph - N/A Snow Light Snow
10:55 AM 8.6 °F 2.0 °F 3.2 °F 79% 30.30 in 7.0 mi East 3.5 mph - N/A   Overcast
11:55 AM 8.6 °F - 5.0 °F 85% 30.30 in 7.0 mi Calm Calm - N/A Snow Light Snow Showers
12:55 PM 10.4 °F 4.0 °F 6.8 °F 85% 30.29 in 10.0 mi ENE 3.5 mph - N/A   Mostly Cloudy
1:55 PM 12.2 °F - 6.8 °F 79% 30.28 in 10.0 mi Calm Calm - N/A   Mostly Cloudy
2:55 PM 12.2 °F - 8.6 °F 85% 30.25 in 10.0 mi Calm Calm - N/A   Mostly Cloudy
3:55 PM 12.2 °F 6.1 °F 6.8 °F 79% 30.24 in 10.0 mi ENE 3.5 mph - N/A   Mostly Cloudy
4:55 PM 8.6 °F -1.3 °F 5.0 °F 85% 30.23 in 10.0 mi ENE 5.8 mph - N/A   Mostly Cloudy
5:55 PM 6.8 °F -4.8 °F 3.2 °F 85% 30.21 in 10.0 mi Variable 6.9 mph - N/A   Mostly Cloudy
6:55 PM 6.8 °F -4.8 °F 3.2 °F 85% 30.17 in 10.0 mi Variable 6.9 mph - N/A   Mostly Cloudy
7:55 PM 8.6 °F -2.6 °F 3.2 °F 79% 30.17 in 10.0 mi Variable 6.9 mph - N/A   Scattered Clouds
8:55 PM 8.6 °F -2.6 °F 3.2 °F 79% 30.16 in 10.0 mi Variable 6.9 mph - N/A   Scattered Clouds
9:55 PM 8.6 °F -2.6 °F 3.2 °F 79% 30.12 in 10.0 mi Variable 6.9 mph - N/A   Scattered Clouds
9:56 PM 8.1 °F -2.0 °F 3.9 °F 83% 30.12 in 10.0 mi ENE 5.8 mph - N/A   Scattered Clouds
10:56 PM 10.0 °F -0.9 °F 3.9 °F 76% 30.10 in 10.0 mi ENE 6.9 mph - N/A   Overcast
11:56 PM 10.9 °F 2.9 °F 5.0 °F 77% 30.07 in 10.0 mi East 4.6 mph - N/A   Overcast